Regional Weather Roundup
Issued by NWS Raleigh/Durham, NC

Home | Current Version | Previous Version | Text Only | Print | Product List | Glossary On
Versions: 1 2 3 4 5 6 7 8 9 10 11 12 13 14 15 16 17 18 19 20 21 22 23 24 25 26 27
000
ASUS42 KRAH 210410
RWRRAH
NORTH CAROLINA WEATHER ROUNDUP
NATIONAL WEATHER SERVICE RALEIGH NC
1200 AM EDT MON APR 21 2014

NOTE: "FAIR" INDICATES FEW OR NO CLOUDS BELOW 12,000 FEET WITH NO
SIGNIFICANT WEATHER AND/OR OBSTRUCTIONS TO VISIBILITY.

NCZ001-053-055-056-065-067-210500-
WESTERN NORTH CAROLINA

CITY           SKY/WX    TMP DP  RH WIND       PRES   REMARKS
ASHEVILLE      CLEAR     47  38  71 CALM      30.23S
JEFFERSON      PTCLDY    51  24  34 CALM      30.25F
MORGANTON      CLEAR     41  38  87 N5        30.26F
HICKORY        CLEAR     52  34  50 CALM      30.21S
RUTHERFORDTON  CLEAR     55  34  44 NE3       30.21F
MOUNT AIRY     CLEAR     57  32  38 NE7       30.22S
BOONE          CLEAR     38  32  77 CALM      30.25F
$$

NCZ021-022-025-041-071-084-088-210500-
CENTRAL NORTH CAROLINA

CITY           SKY/WX    TMP DP  RH WIND       PRES   REMARKS
CHARLOTTE      CLEAR     57  36  45 NE7       30.19S
GREENSBORO     CLEAR     50  37  61 E9        30.21S
WINSTON-SALEM  CLEAR     54  34  46 NE6       30.22F
RALEIGH-DURHAM PTCLDY    52  34  50 NE10      30.22F
FORT BRAGG     CLOUDY    58  35  43 N9        30.18F
FAYETTEVILLE   CLOUDY    57  38  48 N12       30.17F
CHAPEL HILL    CLEAR     52  34  50 NE8       30.22F
BURLINGTON     CLEAR     51  35  54 NE6       30.22S
LAURINBURG     CLOUDY    58  39  49 NE12      30.18F
$$

NCZ011-015-027-028-043-044-047-080-103-210500-
NORTHEASTERN NORTH CAROLINA

CITY           SKY/WX    TMP DP  RH WIND       PRES   REMARKS
ROCKY MT-WILSO CLOUDY    52  33  48 N13       30.22S
GREENVILLE     CLOUDY    52  37  58 N10       30.19F
WASHINGTON     CLOUDY    53  46  77 N9        30.18S
ELIZABETH CITY CLOUDY    48  42  80 N21G26    30.18F
MANTEO         CLOUDY    47  46  93 NE22G32   30.13F
CAPE HATTERAS  CLOUDY    49  49 100 NE15G38   30.04F
$$

NCZ078-087-090-091-093-098-101-210500-
SOUTHEASTERN NORTH CAROLINA

CITY           SKY/WX    TMP DP  RH WIND       PRES   REMARKS
LUMBERTON      CLOUDY    58  39  49 NE14G20   30.16F
GOLDSBORO      CLOUDY    54  38  55 N9G21     30.17S
KINSTON        CLOUDY    53  39  60 N12G20    30.18S
KENANSVILLE    CLOUDY    54  38  56 N10       30.17F
NEW BERN       CLOUDY    53  46  77 N15G23    30.15S
CHERRY POINT   CLOUDY    51  45  79 N23G30    30.12S
BEAUFORT       CLOUDY    52  49  89 N20G28    30.07F
JACKSONVILLE   CLOUDY    52  45  77 N14G25    30.12S
WILMINGTON     CLOUDY    55  43  63 N15G24    30.12R
$$




USA.gov is the U.S. government's official web portal to all federal, state and local government web resources and services.